Location: Unspecified
(0.0000°N, 0.0000°E)
Time: 17:37:09
(UTC+00:00)

Vanguard 2 Rocket - Pass Details

Date: 25 January 2020
Orbit: 554 x 3327 km, 32.9° (Epoch: 20 February)

Event Time Altitude Azimuth Distance (km) Brightness Sun altitude
Rises 14:16:35 0° 287° (WNW) 6,061 11.4 54.1°
Reaches altitude 10° 14:20:20 10° 281° (W) 5,359 11.4 53.3°
Maximum altitude 14:36:50 49° 212° (SSW) 3,885 11.9 49.8°
Drops below altitude 10° 14:55:57 10° 142° (SE) 6,054 11.1 45.6°
Sets 15:00:38 0° 136° (SE) 6,857 11.2 44.6°
